| time (UTC) | temp F | wind direction | speed knots | gust knots | rain 1hr in | rain 24hr in | rain mn in | humidity % | barometer mb |
| 20260506232449 | 59 | 167 | 2.6 | 3.5 | 0.00 | 0.00 | 0.00 | 76 | 1006.2 |
| 20260506231950 | 59 | 342 | 0.9 | 3.5 | 0.00 | 0.00 | 0.00 | 76 | 1006.0 |
| 20260506231449 | 60 | 135 | 0.0 | 3.5 | 0.00 | 0.00 | 0.00 | 74 | 1006.1 |
| 20260506230952 | 60 | 152 | 0.9 | 2.6 | 0.00 | 0.00 | 0.00 | 74 | 1005.9 |
| 20260506230448 | 60 | 140 | 0.0 | 1.7 | 0.00 | 0.00 | 0.00 | 74 | 1006.0 |
| 20260506225950 | 60 | 134 | 0.9 | 1.7 | 0.00 | 0.00 | 0.00 | 73 | 1005.9 |
| 20260506225730 | 61 | 135 | 0.0 | 2.6 | 0.00 | 0.00 | 0.00 | 72 | 1006.0 |
| 20260506225232 | 61 | 154 | 0.9 | 5.2 | 0.00 | 0.00 | 0.00 | 72 | 1006.0 |
| 20260506224450 | 61 | 179 | 1.7 | 7.0 | 0.00 | 0.00 | 0.00 | 71 | 1006.0 |
| 20260506223949 | 62 | 141 | 0.9 | 9.6 | 0.00 | 0.00 | 0.00 | 71 | 1005.8 |
| 20260506223731 | 62 | 170 | 1.7 | 9.6 | 0.00 | 0.00 | 0.00 | 70 | 1005.7 |
| 20260506222951 | 62 | 126 | 8.7 | 9.6 | 0.00 | 0.00 | 0.00 | 70 | 1005.8 |
| 20260506222510 | 62 | 131 | 3.5 | 9.6 | 0.00 | 0.00 | 0.00 | 69 | 1005.6 |
| 20260506222459 | 62 | 137 | 5.2 | 8.7 | 0.00 | 0.00 | 0.00 | 70 | 1005.7 |
| 20260506221443 | 62 | 137 | 7.0 | 9.6 | 0.00 | 0.00 | 0.00 | 69 | 1005.6 |
| 20260506221223 | 63 | 116 | 0.9 | 7.8 | 0.00 | 0.00 | 0.00 | 69 | 1005.7 |
| 20260506220444 | 63 | 138 | 5.2 | 7.8 | 0.00 | 0.00 | 0.00 | 69 | 1005.7 |
| 20260506215941 | 63 | 137 | 4.3 | 7.8 | 0.00 | 0.00 | 0.00 | 69 | 1005.8 |
| 20260506215443 | 63 | 135 | 3.5 | 4.3 | 0.00 | 0.00 | 0.00 | 68 | 1005.7 |
| 20260506214943 | 63 | 163 | 0.9 | 5.2 | 0.00 | 0.00 | 0.00 | 68 | 1005.7 |
| 20260506214443 | 63 | 114 | 0.9 | 7.0 | 0.00 | 0.00 | 0.00 | 68 | 1005.6 |
| 20260506214225 | 63 | 120 | 2.6 | 7.0 | 0.00 | 0.00 | 0.00 | 68 | 1005.4 |
| 20260506213442 | 64 | 122 | 6.1 | 7.8 | 0.00 | 0.00 | 0.00 | 67 | 1005.1 |
| 20260506212942 | 64 | 160 | 3.5 | 8.7 | 0.00 | 0.00 | 0.00 | 67 | 1005.1 |
| 20260506212444 | 64 | 139 | 7.0 | 8.7 | 0.00 | 0.00 | 0.00 | 66 | 1005.2 |
| 20260506211943 | 64 | 129 | 3.5 | 7.8 | 0.00 | 0.00 | 0.00 | 66 | 1005.2 |
| 20260506211443 | 64 | 142 | 5.2 | 9.6 | 0.00 | 0.00 | 0.00 | 65 | 1005.1 |
| 20260506210943 | 64 | 141 | 2.6 | 9.6 | 0.00 | 0.00 | 0.00 | 65 | 1005.3 |
| 20260506210443 | 64 | 137 | 4.3 | 6.1 | 0.00 | 0.00 | 0.00 | 65 | 1005.3 |
| 20260506205942 | 65 | 144 | 3.5 | 8.7 | 0.00 | 0.00 | 0.00 | 64 | 1005.3 |
| 20260506205442 | 65 | 120 | 6.1 | 9.6 | 0.00 | 0.00 | 0.00 | 64 | 1005.1 |
| 20260506204942 | 65 | 136 | 8.7 | 10.4 | 0.00 | 0.00 | 0.00 | 64 | 1005.1 |
| 20260506204444 | 65 | 129 | 9.6 | 11.3 | 0.00 | 0.00 | 0.00 | 63 | 1005.1 |
| 20260506203941 | 65 | 122 | 2.6 | 12.2 | 0.00 | 0.00 | 0.00 | 63 | 1005.1 |
| 20260506203443 | 65 | 101 | 1.7 | 12.2 | 0.00 | 0.00 | 0.00 | 63 | 1005.1 |
| 20260506203222 | 65 | 135 | 5.2 | 13.0 | 0.00 | 0.00 | 0.00 | 62 | 1005.0 |
| 20260506202443 | 66 | 127 | 4.3 | 13.0 | 0.00 | 0.00 | 0.00 | 62 | 1005.0 |
| 20260506202227 | 66 | 130 | 8.7 | 12.2 | 0.00 | 0.00 | 0.00 | 62 | 1005.0 |
| 20260506201443 | 66 | 136 | 5.2 | 12.2 | 0.00 | 0.00 | 0.00 | 61 | 1004.7 |
| 20260506201223 | 66 | 149 | 2.6 | 13.0 | 0.00 | 0.00 | 0.00 | 61 | 1004.9 |
| 20260506200444 | 66 | 131 | 4.3 | 13.0 | 0.00 | 0.00 | 0.00 | 60 | 1004.7 |
| 20260506200222 | 67 | 141 | 5.2 | 13.9 | 0.00 | 0.00 | 0.00 | 60 | 1004.6 |
| 20260506195442 | 67 | 143 | 4.3 | 13.9 | 0.00 | 0.00 | 0.00 | 60 | 1004.7 |
| 20260506194943 | 67 | 120 | 8.7 | 13.0 | 0.00 | 0.00 | 0.00 | 59 | 1004.7 |
| 20260506194451 | 67 | 129 | 9.6 | 14.8 | 0.00 | 0.00 | 0.00 | 59 | 1004.6 |
| 20260506193941 | 67 | 126 | 7.8 | 14.8 | 0.00 | 0.00 | 0.00 | 58 | 1004.5 |
| 20260506193725 | 67 | 136 | 10.4 | 13.9 | 0.00 | 0.00 | 0.00 | 58 | 1004.5 |
| 20260506193011 | 68 | 124 | 1.7 | 13.9 | 0.00 | 0.00 | 0.00 | 57 | 1004.6 |
| 20260506192959 | 67 | 138 | 10.4 | 13.9 | 0.00 | 0.00 | 0.00 | 58 | 1004.5 |
| 20260506191940 | 68 | 134 | 9.6 | 13.0 | 0.00 | 0.00 | 0.00 | 57 | 1004.6 |
| 20260506191440 | 68 | 144 | 3.5 | 13.9 | 0.00 | 0.00 | 0.00 | 56 | 1004.7 |
| 20260506190941 | 68 | 149 | 7.0 | 13.9 | 0.00 | 0.00 | 0.00 | 56 | 1004.6 |
| 20260506190510 | 69 | 119 | 4.3 | 16.5 | 0.00 | 0.00 | 0.00 | 55 | 1004.7 |
| 20260506190457 | 68 | 148 | 6.1 | 14.8 | 0.00 | 0.00 | 0.00 | 55 | 1004.7 |
| 20260506185437 | 69 | 128 | 3.5 | 16.5 | 0.00 | 0.00 | 0.00 | 55 | 1004.5 |
| 20260506184936 | 69 | 139 | 9.6 | 16.5 | 0.00 | 0.00 | 0.00 | 54 | 1004.5 |
| 20260506184439 | 69 | 140 | 7.8 | 17.4 | 0.00 | 0.00 | 0.00 | 54 | 1004.4 |
| 20260506184218 | 69 | 140 | 5.2 | 17.4 | 0.00 | 0.00 | 0.00 | 54 | 1004.3 |
| 20260506183720 | 69 | 161 | 4.3 | 14.8 | 0.00 | 0.00 | 0.00 | 53 | 1004.1 |
| 20260506182938 | 70 | 153 | 9.6 | 15.6 | 0.00 | 0.00 | 0.00 | 53 | 1004.3 |
| 20260506182720 | 70 | 118 | 5.2 | 15.6 | 0.00 | 0.00 | 0.00 | 53 | 1004.0 |
| 20260506181937 | 70 | 119 | 4.3 | 18.2 | 0.00 | 0.00 | 0.00 | 53 | 1003.9 |
| 20260506181438 | 70 | 136 | 12.2 | 18.2 | 0.00 | 0.00 | 0.00 | 52 | 1004.1 |
| 20260506180929 | 70 | 154 | 11.3 | 13.0 | 0.00 | 0.00 | 0.00 | 52 | 1004.2 |
| 20260506180429 | 70 | 115 | 3.5 | 13.0 | 0.00 | 0.00 | 0.00 | 52 | 1003.9 |
| 20260506175929 | 71 | 131 | 3.5 | 12.2 | 0.00 | 0.00 | 0.00 | 52 | 1003.7 |
| 20260506175429 | 71 | 141 | 9.6 | 13.9 | 0.00 | 0.00 | 0.00 | 52 | 1003.9 |
| 20260506174929 | 71 | 133 | 6.1 | 13.9 | 0.00 | 0.00 | 0.00 | 51 | 1004.1 |
| 20260506174428 | 71 | 154 | 5.2 | 10.4 | 0.00 | 0.00 | 0.00 | 51 | 1003.9 |
| 20260506173929 | 71 | 101 | 1.7 | 10.4 | 0.00 | 0.00 | 0.00 | 50 | 1003.9 |
| 20260506173429 | 71 | 126 | 1.7 | 11.3 | 0.00 | 0.00 | 0.00 | 50 | 1003.9 |
| 20260506172930 | 72 | 151 | 2.6 | 13.0 | 0.00 | 0.00 | 0.00 | 50 | 1003.8 |
| 20260506172454 | 72 | 140 | 5.2 | 16.5 | 0.00 | 0.00 | 0.00 | 49 | 1003.9 |
| 20260506172443 | 72 | 149 | 7.8 | 16.5 | 0.00 | 0.00 | 0.00 | 49 | 1003.9 |
| 20260506171429 | 72 | 131 | 7.8 | 14.8 | 0.00 | 0.00 | 0.00 | 49 | 1003.9 |
| 20260506170929 | 73 | 141 | 7.0 | 13.0 | 0.00 | 0.00 | 0.00 | 48 | 1003.9 |
| 20260506170429 | 73 | 144 | 5.2 | 13.0 | 0.00 | 0.00 | 0.00 | 48 | 1003.7 |
| 20260506170206 | 73 | 140 | 6.1 | 12.2 | 0.00 | 0.00 | 0.00 | 48 | 1003.8 |
| 20260506165429 | 73 | 137 | 5.2 | 12.2 | 0.00 | 0.00 | 0.00 | 47 | 1004.0 |
| 20260506164929 | 73 | 148 | 7.8 | 9.6 | 0.00 | 0.00 | 0.00 | 47 | 1004.1 |
| 20260506164429 | 73 | 130 | 4.3 | 11.3 | 0.00 | 0.00 | 0.00 | 47 | 1004.0 |
| 20260506164206 | 74 | 113 | 1.7 | 20.9 | 0.00 | 0.00 | 0.00 | 47 | 1003.9 |
| 20260506163426 | 74 | 143 | 6.1 | 20.9 | 0.00 | 0.00 | 0.00 | 46 | 1003.9 |
| 20260506163205 | 74 | 129 | 6.1 | 8.7 | 0.00 | 0.00 | 0.00 | 45 | 1004.0 |
| 20260506162704 | 74 | 181 | 2.6 | 13.0 | 0.00 | 0.00 | 0.00 | 44 | 1004.0 |
| 20260506162209 | 74 | 129 | 4.3 | 13.9 | 0.00 | 0.00 | 0.00 | 44 | 1004.2 |
| 20260506161429 | 74 | 147 | 9.6 | 14.8 | 0.00 | 0.00 | 0.00 | 44 | 1004.3 |
| 20260506160924 | 74 | 135 | 7.0 | 16.5 | 0.00 | 0.00 | 0.00 | 44 | 1004.5 |
| 20260506160426 | 75 | 142 | 11.3 | 16.5 | 0.00 | 0.00 | 0.00 | 43 | 1004.3 |
| 20260506155925 | 75 | 133 | 13.0 | 16.5 | 0.00 | 0.00 | 0.00 | 43 | 1004.5 |
| 20260506155454 | 75 | 147 | 10.4 | 18.2 | 0.00 | 0.00 | 0.00 | 44 | 1004.5 |
| 20260506155443 | 75 | 129 | 10.4 | 16.5 | 0.00 | 0.00 | 0.00 | 44 | 1004.5 |
| 20260506154426 | 75 | 139 | 1.7 | 18.2 | 0.00 | 0.00 | 0.00 | 44 | 1004.6 |
| 20260506153925 | 75 | 144 | 7.0 | 16.5 | 0.00 | 0.00 | 0.00 | 44 | 1004.4 |
| 20260506153705 | 74 | 137 | 13.0 | 17.4 | 0.00 | 0.00 | 0.00 | 44 | 1005.0 |
| 20260506152926 | 74 | 121 | 2.6 | 17.4 | 0.00 | 0.00 | 0.00 | 44 | 1004.9 |
| 20260506152425 | 75 | 132 | 5.2 | 17.4 | 0.00 | 0.00 | 0.00 | 44 | 1005.1 |
| 20260506151924 | 75 | 178 | 4.3 | 17.4 | 0.00 | 0.00 | 0.00 | 44 | 1005.3 |
| 20260506151426 | 75 | 142 | 4.3 | 16.5 | 0.00 | 0.00 | 0.00 | 44 | 1005.2 |
| 20260506150925 | 75 | 146 | 7.0 | 13.9 | 0.00 | 0.00 | 0.00 | 45 | 1005.3 |
| 20260506150425 | 74 | 134 | 3.5 | 19.1 | 0.00 | 0.00 | 0.00 | 45 | 1005.4 |
| 20260506145925 | 74 | 130 | 13.0 | 19.1 | 0.00 | 0.00 | 0.00 | 46 | 1005.4 |
| 20260506145426 | 74 | 151 | 7.0 | 22.6 | 0.00 | 0.00 | 0.00 | 45 | 1005.2 |
| 20260506144926 | 74 | 129 | 7.0 | 22.6 | 0.00 | 0.00 | 0.00 | 46 | 1005.4 |
| 20260506144426 | 74 | 141 | 11.3 | 21.7 | 0.00 | 0.00 | 0.00 | 46 | 1005.5 |
| 20260506143924 | 75 | 151 | 8.7 | 14.8 | 0.00 | 0.00 | 0.00 | 45 | 1005.4 |
| 20260506143427 | 75 | 149 | 4.3 | 14.8 | 0.00 | 0.00 | 0.00 | 47 | 1005.5 |
| 20260506142914 | 74 | 133 | 4.3 | 13.9 | 0.00 | 0.00 | 0.00 | 47 | 1005.6 |
| 20260506142413 | 73 | 128 | 4.3 | 13.0 | 0.00 | 0.00 | 0.00 | 47 | 1005.8 |
| 20260506141915 | 74 | 132 | 4.3 | 10.4 | 0.00 | 0.00 | 0.00 | 47 | 1005.7 |
| 20260506141412 | 74 | 126 | 2.6 | 11.3 | 0.00 | 0.00 | 0.00 | 47 | 1005.8 |
| 20260506140914 | 74 | 165 | 3.5 | 14.8 | 0.00 | 0.00 | 0.00 | 47 | 1005.4 |
| 20260506140412 | 73 | 147 | 5.2 | 16.5 | 0.00 | 0.00 | 0.00 | 47 | 1005.8 |
| 20260506135914 | 73 | 142 | 3.5 | 18.2 | 0.00 | 0.00 | 0.00 | 49 | 1006.0 |
| 20260506135415 | 73 | 150 | 4.3 | 18.2 | 0.00 | 0.00 | 0.00 | 49 | 1005.9 |
| 20260506134914 | 74 | 136 | 11.3 | 16.5 | 0.00 | 0.00 | 0.00 | 48 | 1005.8 |
| 20260506134413 | 74 | 120 | 1.7 | 16.5 | 0.00 | 0.00 | 0.00 | 49 | 1006.1 |
| 20260506133917 | 74 | 169 | 3.5 | 12.2 | 0.00 | 0.00 | 0.00 | 47 | 1005.8 |
| 20260506133413 | 73 | 131 | 4.3 | 16.5 | 0.00 | 0.00 | 0.00 | 48 | 1005.9 |
| 20260506132914 | 73 | 138 | 7.8 | 16.5 | 0.00 | 0.00 | 0.00 | 49 | 1006.1 |
| 20260506132654 | 73 | 133 | 6.1 | 15.6 | 0.00 | 0.00 | 0.00 | 48 | 1006.2 |
| 20260506132157 | 73 | 137 | 7.0 | 17.4 | 0.00 | 0.00 | 0.00 | 48 | 1006.2 |
| 20260506131654 | 73 | 143 | 11.3 | 17.4 | 0.00 | 0.00 | 0.00 | 49 | 1006.3 |
| 20260506130912 | 74 | 122 | 10.4 | 18.2 | 0.00 | 0.00 | 0.00 | 48 | 1006.5 |
| 20260506130408 | 73 | 151 | 7.8 | 18.2 | 0.00 | 0.00 | 0.00 | 47 | 1006.3 |
| 20260506125909 | 74 | 110 | 2.6 | 13.9 | 0.00 | 0.00 | 0.00 | 46 | 1006.4 |
| 20260506125409 | 74 | 128 | 7.8 | 13.9 | 0.00 | 0.00 | 0.00 | 45 | 1006.4 |
| 20260506124908 | 75 | 85 | 1.7 | 16.5 | 0.00 | 0.00 | 0.00 | 44 | 1006.4 |
| 20260506124408 | 74 | 179 | 1.7 | 17.4 | 0.00 | 0.00 | 0.00 | 44 | 1006.6 |
| 20260506124146 | 74 | 133 | 9.6 | 17.4 | 0.00 | 0.00 | 0.00 | 43 | 1006.4 |
| 20260506123410 | 73 | 134 | 6.1 | 15.6 | 0.00 | 0.00 | 0.00 | 44 | 1006.6 |
| 20260506122907 | 74 | 135 | 8.7 | 16.5 | 0.00 | 0.00 | 0.00 | 44 | 1006.7 |
| 20260506122409 | 75 | 121 | 9.6 | 16.5 | 0.00 | 0.00 | 0.00 | 44 | 1006.5 |
| 20260506122152 | 75 | 137 | 3.5 | 7.8 | 0.00 | 0.00 | 0.00 | 43 | 1006.9 |
| 20260506121409 | 76 | 179 | 2.6 | 7.8 | 0.00 | 0.00 | 0.00 | 43 | 1006.8 |
| 20260506121157 | 76 | 228 | 2.6 | 9.6 | 0.00 | 0.00 | 0.00 | 42 | 1006.7 |
| 20260506120406 | 75 | 103 | 0.0 | 9.6 | 0.00 | 0.00 | 0.00 | 44 | 1006.9 |
| 20260506115905 | 74 | 88 | 2.6 | 14.8 | 0.00 | 0.00 | 0.00 | 45 | 1007.0 |
| 20260506115408 | 74 | 104 | 0.9 | 14.8 | 0.00 | 0.00 | 0.00 | 45 | 1006.9 |
| 20260506114905 | 75 | 127 | 0.9 | 15.6 | 0.00 | 0.00 | 0.00 | 44 | 1006.8 |
| 20260506114645 | 73 | 174 | 1.7 | 15.6 | 0.00 | 0.00 | 0.00 | 45 | 1007.0 |
| 20260506113907 | 73 | 132 | 14.8 | 14.8 | 0.00 | 0.00 | 0.00 | 45 | 1007.0 |
| 20260506113407 | 74 | 136 | 2.6 | 10.4 | 0.00 | 0.00 | 0.00 | 45 | 1006.9 |
| 20260506112906 | 75 | 68 | 1.7 | 10.4 | 0.00 | 0.00 | 0.00 | 45 | 1007.2 |
| 20260506112406 | 74 | 159 | 4.3 | 10.4 | 0.00 | 0.00 | 0.00 | 45 | 1007.1 |
| 20260506111905 | 76 | 103 | 0.0 | 7.0 | 0.00 | 0.00 | 0.00 | 44 | 1007.1 |
| 20260506111407 | 75 | 295 | 0.0 | 9.6 | 0.00 | 0.00 | 0.00 | 45 | 1007.3 |
| 20260506110905 | 76 | 114 | 1.7 | 9.6 | 0.00 | 0.00 | 0.00 | 44 | 1007.3 |
| 20260506110451 | 75 | 179 | 1.7 | 7.0 | 0.00 | 0.00 | 0.00 | 46 | 1007.4 |
| 20260506110447 | 74 | 0 | 3.5 | 7.8 | 0.00 | 0.00 | 0.00 | 46 | 1007.5 |
| 20260506110436 | 75 | 328 | 4.3 | 7.0 | 0.00 | 0.00 | 0.00 | 45 | 1007.2 |
| 20260506104907 | 74 | 117 | 6.1 | 7.8 | 0.00 | 0.00 | 0.00 | 46 | 1007.5 |
| 20260506104406 | 76 | 103 | 0.9 | 7.0 | 0.00 | 0.00 | 0.00 | 45 | 1007.6 |
| 20260506103908 | 74 | 91 | 0.0 | 7.0 | 0.00 | 0.00 | 0.00 | 46 | 1007.6 |
| 20260506103643 | 74 | 122 | 1.7 | 5.2 | 0.00 | 0.00 | 0.00 | 45 | 1007.7 |
| 20260506102907 | 74 | 186 | 0.9 | 5.2 | 0.00 | 0.00 | 0.00 | 44 | 1007.7 |
| 20260506102405 | 74 | 295 | 1.7 | 7.0 | 0.00 | 0.00 | 0.00 | 46 | 1007.8 |
| 20260506101907 | 74 | 120 | 2.6 | 7.0 | 0.00 | 0.00 | 0.00 | 46 | 1007.7 |
| 20260506101428 | 73 | 19 | 0.9 | 10.4 | 0.00 | 0.00 | 0.00 | 46 | 1007.8 |
| 20260506101421 | 73 | 129 | 0.0 | 10.4 | 0.00 | 0.00 | 0.00 | 46 | 1007.7 |
| 20260506100415 | 75 | 134 | 2.6 | 5.2 | 0.00 | 0.00 | 0.00 | 45 | 1007.6 |
| 20260506095906 | 75 | 316 | 1.7 | 7.8 | 0.00 | 0.00 | 0.00 | 44 | 1007.9 |
| 20260506095644 | 74 | 80 | 0.9 | 7.8 | 0.00 | 0.00 | 0.00 | 47 | 1007.8 |
| 20260506094905 | 76 | 128 | 4.3 | 7.0 | 0.00 | 0.00 | 0.00 | 44 | 1007.9 |
| 20260506094407 | 75 | 151 | 4.3 | 8.7 | 0.00 | 0.00 | 0.00 | 46 | 1007.8 |
| 20260506093906 | 74 | 148 | 5.2 | 8.7 | 0.00 | 0.00 | 0.00 | 46 | 1008.0 |
| 20260506093407 | 75 | 157 | 1.7 | 7.8 | 0.00 | 0.00 | 0.00 | 46 | 1007.8 |
| 20260506092905 | 74 | 121 | 1.7 | 5.2 | 0.00 | 0.00 | 0.00 | 46 | 1008.1 |
| 20260506092407 | 75 | 139 | 5.2 | 5.2 | 0.00 | 0.00 | 0.00 | 46 | 1007.8 |
| 20260506092148 | 74 | 167 | 3.5 | 5.2 | 0.00 | 0.00 | 0.00 | 48 | 1007.9 |
| 20260506091407 | 74 | 259 | 1.7 | 6.1 | 0.00 | 0.00 | 0.00 | 48 | 1008.2 |
| 20260506090905 | 74 | 126 | 1.7 | 6.1 | 0.00 | 0.00 | 0.00 | 48 | 1008.0 |
| 20260506090407 | 74 | 169 | 1.7 | 5.2 | 0.00 | 0.00 | 0.00 | 48 | 1008.0 |
| 20260506085907 | 73 | 314 | 2.6 | 7.8 | 0.00 | 0.00 | 0.00 | 51 | 1008.2 |
| 20260506085433 | 73 | 148 | 2.6 | 4.3 | 0.00 | 0.00 | 0.00 | 51 | 1008.1 |
| 20260506085421 | 72 | 224 | 0.0 | 7.8 | 0.00 | 0.00 | 0.00 | 51 | 1007.9 |
| 20260506084407 | 70 | 92 | 3.5 | 4.3 | 0.00 | 0.00 | 0.00 | 54 | 1008.0 |
| 20260506083906 | 73 | 179 | 1.7 | 5.2 | 0.00 | 0.00 | 0.00 | 52 | 1008.2 |
| 20260506083645 | 73 | 145 | 5.2 | 5.2 | 0.00 | 0.00 | 0.00 | 53 | 1008.0 |
| 20260506082907 | 73 | 92 | 0.9 | 5.2 | 0.00 | 0.00 | 0.00 | 53 | 1008.3 |
| 20260506082656 | 73 | 322 | 1.7 | 3.5 | 0.00 | 0.00 | 0.00 | 54 | 1008.3 |
| 20260506081905 | 72 | 34 | 1.7 | 3.5 | 0.00 | 0.00 | 0.00 | 55 | 1008.2 |
| 20260506081407 | 73 | 175 | 0.0 | 3.5 | 0.00 | 0.00 | 0.00 | 54 | 1008.3 |
| 20260506081145 | 72 | 206 | 1.7 | 6.1 | 0.00 | 0.00 | 0.00 | 54 | 1008.3 |
| 20260506080408 | 73 | 44 | 1.7 | 6.1 | 0.00 | 0.00 | 0.00 | 53 | 1008.2 |
| 20260506073406 | 71 | 1 | 1.7 | 3.5 | 0.00 | 0.00 | 0.00 | 54 | 1008.3 |
| 20260506072907 | 70 | 13 | 0.9 | 3.5 | 0.00 | 0.00 | 0.00 | 55 | 1008.4 |
| 20260506072646 | 71 | 339 | 1.7 | 4.3 | 0.00 | 0.00 | 0.00 | 53 | 1008.1 |
| 20260506071908 | 70 | 334 | 0.0 | 4.3 | 0.00 | 0.00 | 0.00 | 56 | 1008.3 |
| 20260506071414 | 72 | 321 | 3.5 | 3.5 | 0.00 | 0.00 | 0.00 | 54 | 1008.1 |
| 20260506070906 | 71 | 105 | 0.0 | 2.6 | 0.00 | 0.00 | 0.00 | 54 | 1008.4 |
| 20260506070405 | 70 | 331 | 0.0 | 3.5 | 0.00 | 0.00 | 0.00 | 56 | 1008.0 |
| 20260506062407 | 66 | 116 | 1.7 | 4.3 | 0.00 | 0.00 | 0.00 | 65 | 1008.2 |
| 20260506061905 | 64 | 132 | 2.6 | 4.3 | 0.00 | 0.00 | 0.00 | 67 | 1008.1 |
| 20260506061408 | 64 | 37 | 0.0 | 4.3 | 0.00 | 0.00 | 0.00 | 67 | 1008.0 |
| 20260506060907 | 63 | 88 | 0.0 | 5.2 | 0.00 | 0.00 | 0.00 | 69 | 1008.3 |
| 20260506060408 | 64 | 154 | 1.7 | 5.2 | 0.00 | 0.00 | 0.00 | 67 | 1008.2 |
| 20260506050903 | 57 | 48 | 2.6 | 3.5 | 0.00 | 0.00 | 0.00 | 78 | 1008.2 |
| 20260506050406 | 57 | 137 | 1.7 | 3.5 | 0.00 | 0.00 | 0.00 | 77 | 1008.2 |
| 20260506044405 | 55 | 89 | 0.0 | 3.5 | 0.00 | 0.00 | 0.00 | 82 | 1007.9 |
| 20260506043933 | 55 | 152 | 1.7 | 3.5 | 0.00 | 0.00 | 0.00 | 81 | 1007.8 |
| 20260506043923 | 54 | 201 | 2.6 | 3.5 | 0.00 | 0.00 | 0.00 | 82 | 1007.7 |
| 20260506042904 | 54 | 164 | 1.7 | 3.5 | 0.00 | 0.00 | 0.00 | 84 | 1008.1 |
| 20260506042404 | 53 | 187 | 1.7 | 4.3 | 0.00 | 0.00 | 0.00 | 85 | 1007.9 |
| 20260506041905 | 52 | 178 | 1.7 | 4.3 | 0.00 | 0.00 | 0.00 | 86 | 1007.8 |
| 20260506041405 | 51 | 164 | 1.7 | 2.6 | 0.00 | 0.00 | 0.00 | 88 | 1007.8 |
| 20260506041141 | 51 | 179 | 1.7 | 3.5 | 0.00 | 0.00 | 0.00 | 89 | 1007.7 |
| 20260506040404 | 51 | 104 | 3.5 | 3.5 | 0.00 | 0.00 | 0.00 | 90 | 1007.6 |
| 20260506040144 | 50 | 269 | 0.0 | 1.7 | 0.00 | 0.00 | 0.00 | 90 | 1007.5 |
| 20260506035406 | 50 | 50 | 0.0 | 3.5 | 0.00 | 0.00 | 0.00 | 91 | 1007.5 |
| 20260506035144 | 50 | 269 | 0.0 | 3.5 | 0.00 | 0.00 | 0.00 | 90 | 1007.5 |
| 20260506034406 | 50 | 131 | 1.7 | 3.5 | 0.00 | 0.00 | 0.00 | 90 | 1007.3 |
| 20260506033905 | 50 | 166 | 1.7 | 2.6 | 0.00 | 0.00 | 0.00 | 90 | 1007.6 |
| 20260506033405 | 50 | 72 | 1.7 | 2.6 | 0.00 | 0.00 | 0.00 | 90 | 1007.6 |
| 20260506033207 | 50 | 248 | 0.0 | 2.6 | 0.00 | 0.00 | 0.00 | 90 | 1007.3 |
| 20260506033158 | 50 | 229 | 2.6 | 4.3 | 0.00 | 0.00 | 0.00 | 90 | 1007.5 |
| 20260506031904 | 51 | 42 | 1.7 | 4.3 | 0.00 | 0.00 | 0.00 | 88 | 1007.6 |
| 20260506031405 | 51 | 39 | 1.7 | 3.5 | 0.00 | 0.00 | 0.00 | 88 | 1007.4 |
| 20260506030903 | 51 | 220 | 1.7 | 3.5 | 0.00 | 0.00 | 0.00 | 88 | 1007.0 |
| 20260506030639 | 51 | 125 | 1.7 | 3.5 | 0.00 | 0.00 | 0.00 | 87 | 1007.3 |
| 20260506030141 | 51 | 135 | 1.7 | 3.5 | 0.00 | 0.00 | 0.00 | 87 | 1007.1 |
| 20260506025640 | 51 | 79 | 0.9 | 3.5 | 0.00 | 0.00 | 0.00 | 87 | 1007.1 |
| 20260506024903 | 52 | 155 | 1.7 | 3.5 | 0.00 | 0.00 | 0.00 | 86 | 1007.1 |
| 20260506024405 | 52 | 160 | 1.7 | 2.6 | 0.00 | 0.00 | 0.00 | 86 | 1007.1 |
| 20260506023904 | 52 | 133 | 0.9 | 3.5 | 0.00 | 0.00 | 0.00 | 86 | 1007.0 |
| 20260506023405 | 52 | 185 | 1.7 | 3.5 | 0.00 | 0.00 | 0.00 | 85 | 1007.0 |
| 20260506022904 | 53 | 156 | 0.9 | 1.7 | 0.00 | 0.00 | 0.00 | 84 | 1007.1 |
| 20260506022406 | 53 | 179 | 0.9 | 1.7 | 0.00 | 0.00 | 0.00 | 84 | 1007.3 |
| 20260506022145 | 53 | 141 | 0.0 | 1.7 | 0.00 | 0.00 | 0.00 | 83 | 1007.4 |
| 20260506021405 | 53 | 141 | 0.0 | 1.7 | 0.00 | 0.00 | 0.00 | 82 | 1007.0 |
| 20260506020903 | 54 | 143 | 0.9 | 1.7 | 0.00 | 0.00 | 0.00 | 82 | 1007.1 |
| 20260506020404 | 54 | 129 | 0.0 | 1.7 | 0.00 | 0.00 | 0.00 | 81 | 1007.0 |
| 20260506015904 | 54 | 145 | 0.0 | 1.7 | 0.00 | 0.00 | 0.00 | 80 | 1006.8 |
| 20260506015406 | 54 | 124 | 0.0 | 1.7 | 0.00 | 0.00 | 0.00 | 80 | 1006.8 |
| 20260506015146 | 55 | 149 | 1.7 | 1.7 | 0.00 | 0.00 | 0.00 | 79 | 1006.8 |
| 20260506014640 | 55 | 158 | 0.0 | 1.7 | 0.00 | 0.00 | 0.00 | 78 | 1006.9 |
| 20260506013906 | 55 | 168 | 0.0 | 2.6 | 0.00 | 0.00 | 0.00 | 77 | 1006.8 |
| 20260506013405 | 56 | 138 | 1.7 | 2.6 | 0.00 | 0.00 | 0.00 | 77 | 1006.3 |
| 20260506012904 | 56 | 140 | 1.7 | 2.6 | 0.00 | 0.00 | 0.00 | 76 | 1006.4 |
| 20260506012405 | 56 | 130 | 1.7 | 2.6 | 0.00 | 0.00 | 0.00 | 75 | 1006.5 |
| 20260506011904 | 57 | 154 | 0.9 | 1.7 | 0.00 | 0.00 | 0.00 | 74 | 1006.4 |
| 20260506011405 | 57 | 172 | 0.9 | 1.7 | 0.00 | 0.00 | 0.00 | 74 | 1006.4 |
| 20260506010903 | 58 | 129 | 0.0 | 1.7 | 0.00 | 0.00 | 0.00 | 73 | 1006.4 |
| 20260506010404 | 58 | 154 | 0.0 | 2.6 | 0.00 | 0.00 | 0.00 | 72 | 1006.4 |
| 20260506005905 | 58 | 132 | 0.0 | 2.6 | 0.00 | 0.00 | 0.00 | 71 | 1006.4 |
| 20260506005429 | 59 | 141 | 0.9 | 2.6 | 0.00 | 0.00 | 0.00 | 69 | 1006.4 |
| 20260506005420 | 58 | 130 | 2.6 | 2.6 | 0.00 | 0.00 | 0.00 | 70 | 1006.5 |
| 20260506004405 | 59 | 149 | 1.7 | 3.5 | 0.00 | 0.00 | 0.00 | 69 | 1006.3 |
| 20260506003903 | 59 | 126 | 1.7 | 4.3 | 0.00 | 0.00 | 0.00 | 68 | 1006.1 |
| 20260506003407 | 60 | 137 | 2.6 | 4.3 | 0.00 | 0.00 | 0.00 | 68 | 1006.1 |
| 20260506002903 | 60 | 146 | 2.6 | 3.5 | 0.00 | 0.00 | 0.00 | 67 | 1006.2 |
| 20260506002405 | 60 | 12 | 0.9 | 3.5 | 0.00 | 0.00 | 0.00 | 67 | 1006.0 |
| 20260506001905 | 60 | 125 | 1.7 | 3.5 | 0.00 | 0.00 | 0.00 | 67 | 1006.0 |
| 20260506001406 | 60 | 132 | 1.7 | 4.3 | 0.00 | 0.00 | 0.00 | 66 | 1005.9 |
| 20260506000903 | 60 | 152 | 1.7 | 4.3 | 0.00 | 0.00 | 0.00 | 66 | 1006.1 |
| 20260506000638 | 60 | 143 | 3.5 | 3.5 | 0.00 | 0.00 | 0.00 | 66 | 1006.2 |
| 20260506000211 | 60 | 141 | 1.7 | 1.7 | 0.00 | 0.00 | 0.00 | 66 | 1006.3 |
| 20260506000205 | 60 | 142 | 1.7 | 1.7 | 0.00 | 0.00 | 0.00 | 66 | 1006.2 |
| 20260505234905 | 60 | 149 | 1.7 | 3.5 | 0.00 | 0.00 | 0.00 | 65 | 1006.1 |
| 20260505234405 | 61 | 146 | 1.7 | 3.5 | 0.00 | 0.00 | 0.00 | 65 | 1006.0 |
| 20260505233904 | 61 | 151 | 1.7 | 5.2 | 0.00 | 0.00 | 0.00 | 64 | 1005.9 |
| 20260505233405 | 61 | 140 | 1.7 | 6.1 | 0.00 | 0.00 | 0.00 | 64 | 1005.9 |
| 20260505232904 | 61 | 127 | 2.6 | 6.1 | 0.00 | 0.00 | 0.00 | 64 | 1006.0 |